| time (UTC) | temp C | wind direction | speed KPH | gust KPH | rain 1hr cm | rain 24hr cm | rain mn cm | humidity % | barometer mb |
| 20260506163044 | 16 | 202 | 6.4 | 16.1 | 0.00 | 0.18 | 0.00 | 52 | 1011.1 |
| 20260506161544 | 16 | 219 | 9.7 | 20.9 | 0.00 | 0.18 | 0.00 | 51 | 1011.2 |
| 20260506160052 | 16 | 199 | 4.8 | 20.9 | 0.00 | 0.18 | 0.00 | 54 | 1011.1 |
| 20260506154544 | 16 | 209 | 16.1 | 27.4 | 0.00 | 0.18 | 0.00 | 50 | 1011.0 |
| 20260506153041 | 16 | 223 | 9.7 | 19.3 | 0.00 | 0.18 | 0.00 | 52 | 1011.1 |
| 20260506151544 | 16 | 188 | 6.4 | 16.1 | 0.00 | 0.18 | 0.00 | 48 | 1011.2 |
| 20260506150040 | 16 | 122 | 4.8 | 22.5 | 0.00 | 0.18 | 0.00 | 52 | 1011.3 |
| 20260506144544 | 16 | 190 | 9.7 | 22.5 | 0.00 | 0.18 | 0.00 | 50 | 1011.2 |
| 20260506143039 | 16 | 150 | 3.2 | 16.1 | 0.00 | 0.18 | 0.00 | 51 | 1011.4 |
| 20260506141538 | 16 | 203 | 4.8 | 19.3 | 0.00 | 0.18 | 0.00 | 50 | 1011.6 |
| 20260506140038 | 16 | 203 | 11.3 | 20.9 | 0.00 | 0.18 | 0.00 | 51 | 1011.7 |
| 20260506134536 | 16 | 198 | 4.8 | 17.7 | 0.00 | 0.18 | 0.00 | 51 | 1011.9 |
| 20260506133035 | 16 | 223 | 6.4 | 25.7 | 0.00 | 0.18 | 0.00 | 51 | 1012.0 |
| 20260506131546 | 16 | 225 | 11.3 | 22.5 | 0.00 | 0.18 | 0.00 | 52 | 1012.2 |
| 20260506130040 | 16 | 236 | 8.0 | 17.7 | 0.00 | 0.18 | 0.00 | 50 | 1012.3 |
| 20260506124533 | 15 | 206 | 8.0 | 19.3 | 0.00 | 0.18 | 0.00 | 53 | 1012.3 |
| 20260506123031 | 15 | 188 | 4.8 | 19.3 | 0.00 | 0.18 | 0.00 | 48 | 1012.3 |
| 20260506121528 | 16 | 214 | 11.3 | 22.5 | 0.00 | 0.18 | 0.00 | 54 | 1012.3 |
| 20260506120026 | 15 | 198 | 11.3 | 27.4 | 0.00 | 0.18 | 0.00 | 57 | 1012.3 |
| 20260506114525 | 15 | 214 | 8.0 | 14.5 | 0.00 | 0.18 | 0.00 | 58 | 1012.3 |
| 20260506113023 | 14 | 214 | 4.8 | 16.1 | 0.00 | 0.18 | 0.00 | 60 | 1012.4 |
| 20260506111520 | 14 | 227 | 8.0 | 16.1 | 0.00 | 0.18 | 0.00 | 62 | 1012.5 |
| 20260506110018 | 13 | 211 | 6.4 | 14.5 | 0.00 | 0.18 | 0.00 | 62 | 1012.7 |
| 20260506104516 | 13 | 183 | 9.7 | 16.1 | 0.00 | 0.18 | 0.00 | 63 | 1012.8 |
| 20260506103016 | 12 | 194 | 4.8 | 12.9 | 0.00 | 0.18 | 0.00 | 70 | 1012.9 |
| 20260506101512 | 12 | 215 | 8.0 | 16.1 | 0.00 | 0.18 | 0.00 | 70 | 1012.8 |
| 20260506100010 | 12 | 240 | 3.2 | 12.9 | 0.00 | 0.18 | 0.00 | 71 | 1013.0 |
| 20260506094506 | 12 | 189 | 8.0 | 16.1 | 0.00 | 0.18 | 0.00 | 69 | 1013.1 |
| 20260506093005 | 11 | 257 | 6.4 | 14.5 | 0.00 | 0.18 | 0.00 | 75 | 1013.0 |
| 20260506091600 | 10 | 271 | 4.8 | 14.5 | 0.00 | 0.18 | 0.00 | 78 | 1013.0 |
| 20260506090057 | 10 | 194 | 6.4 | 12.9 | 0.00 | 0.18 | 0.00 | 79 | 1012.9 |
| 20260506084557 | 10 | 237 | 1.6 | 9.7 | 0.00 | 0.18 | 0.00 | 81 | 1012.8 |
| 20260506083100 | 9 | 218 | 8.0 | 11.3 | 0.00 | 0.18 | 0.00 | 82 | 1012.9 |
| 20260506081557 | 8 | 216 | 6.4 | 12.9 | 0.00 | 0.18 | 0.00 | 84 | 1012.8 |
| 20260506073049 | 7 | 196 | 1.6 | 11.3 | 0.00 | 0.18 | 0.00 | 88 | 1012.8 |
| 20260506071548 | 7 | 237 | 1.6 | 8.0 | 0.00 | 0.18 | 0.00 | 88 | 1012.7 |
| 20260506070145 | 7 | 241 | 3.2 | 8.0 | 0.00 | 0.18 | 0.00 | 88 | 1012.5 |
| 20260506061539 | 6 | 178 | 1.6 | 6.4 | 0.00 | 0.18 | 0.00 | 88 | 1012.4 |
| 20260506044527 | 6 | 240 | 8.0 | 16.1 | 0.00 | 0.18 | 0.00 | 87 | 1011.3 |
| 20260506043027 | 6 | 194 | 6.4 | 12.9 | 0.00 | 0.18 | 0.00 | 86 | 1011.3 |
| 20260506041526 | 6 | 193 | 8.0 | 20.9 | 0.00 | 0.18 | 0.00 | 86 | 1011.0 |
| 20260506040025 | 6 | 236 | 11.3 | 17.7 | 0.00 | 0.18 | 0.00 | 86 | 1011.0 |
| 20260506034524 | 6 | 212 | 9.7 | 22.5 | 0.00 | 0.18 | 0.00 | 86 | 1011.0 |
| 20260506033019 | 6 | 214 | 8.0 | 17.7 | 0.00 | 0.18 | 0.00 | 85 | 1011.0 |
| 20260506031516 | 6 | 249 | 6.4 | 14.5 | 0.00 | 0.18 | 0.00 | 85 | 1011.1 |
| 20260506030025 | 6 | 219 | 6.4 | 14.5 | 0.00 | 0.18 | 0.00 | 84 | 1011.2 |
| 20260506024525 | 7 | 196 | 6.4 | 17.7 | 0.00 | 0.18 | 0.00 | 84 | 1011.1 |
| 20260506023110 | 7 | 211 | 8.0 | 14.5 | 0.00 | 0.18 | 0.00 | 83 | 1011.2 |
| 20260506021507 | 7 | 244 | 6.4 | 12.9 | 0.00 | 0.18 | 0.00 | 83 | 1011.2 |
| 20260506020005 | 7 | 216 | 8.0 | 14.5 | 0.00 | 0.20 | 0.00 | 83 | 1011.2 |
| 20260506014501 | 7 | 241 | 4.8 | 9.7 | 0.00 | 0.20 | 0.00 | 82 | 1011.3 |
| 20260506013100 | 8 | 206 | 3.2 | 11.3 | 0.00 | 0.20 | 0.00 | 81 | 1011.2 |
| 20260506011557 | 8 | 198 | 4.8 | 14.5 | 0.00 | 0.20 | 0.00 | 81 | 1011.3 |
| 20260506010054 | 8 | 211 | 4.8 | 12.9 | 0.00 | 0.20 | 0.00 | 81 | 1011.4 |
| 20260506004551 | 8 | 226 | 6.4 | 16.1 | 0.00 | 0.20 | 0.00 | 81 | 1011.4 |
| 20260506003046 | 8 | 204 | 3.2 | 11.3 | 0.00 | 0.20 | 0.00 | 82 | 1011.5 |
| 20260506001546 | 9 | 209 | 3.2 | 8.0 | 0.00 | 0.20 | 0.00 | 81 | 1011.7 |
| 20260506000043 | 9 | 214 | 0.0 | 6.4 | 0.00 | 0.20 | 0.00 | 81 | 1011.7 |
| 20260505234547 | 9 | 231 | 3.2 | 8.0 | 0.00 | 0.20 | 0.00 | 81 | 1011.7 |
| 20260505233040 | 9 | 195 | 1.6 | 6.4 | 0.00 | 0.20 | 0.00 | 81 | 1011.8 |
| 20260505231550 | 10 | 236 | 4.8 | 11.3 | 0.00 | 0.20 | 0.00 | 81 | 1011.8 |
| 20260505230051 | 9 | 61 | 0.0 | 0.0 | 0.00 | 0.20 | 0.00 | 81 | 1011.8 |
| 20260505224536 | 9 | 61 | 1.6 | 6.4 | 0.00 | 0.20 | 0.00 | 80 | 1011.7 |
| 20260505223033 | 10 | 196 | 0.0 | 1.6 | 0.00 | 0.20 | 0.00 | 79 | 1012.0 |
| 20260505221531 | 10 | 196 | 3.2 | 6.4 | 0.00 | 0.20 | 0.00 | 79 | 1012.1 |
| 20260505220128 | 10 | 295 | 1.6 | 4.8 | 0.00 | 0.20 | 0.00 | 80 | 1012.2 |
| 20260505214528 | 10 | 295 | 1.6 | 3.2 | 0.00 | 0.20 | 0.20 | 80 | 1012.3 |
| 20260505213027 | 10 | 295 | 0.0 | 3.2 | 0.03 | 0.20 | 0.20 | 80 | 1012.2 |
| 20260505211527 | 10 | 295 | 0.0 | 4.8 | 0.10 | 0.20 | 0.20 | 79 | 1012.3 |
| 20260505210027 | 10 | 284 | 1.6 | 6.4 | 0.15 | 0.20 | 0.20 | 79 | 1012.2 |
| 20260505204524 | 9 | 275 | 1.6 | 6.4 | 0.15 | 0.20 | 0.20 | 81 | 1012.0 |
| 20260505203025 | 10 | 200 | 0.0 | 8.0 | 0.15 | 0.18 | 0.18 | 81 | 1011.7 |
| 20260505201523 | 10 | 227 | 3.2 | 6.4 | 0.05 | 0.08 | 0.08 | 80 | 1011.9 |
| 20260505200027 | 10 | 97 | 0.0 | 1.6 | 0.00 | 0.05 | 0.05 | 80 | 1011.2 |
| 20260505194523 | 10 | 97 | 0.0 | 3.2 | 0.00 | 0.99 | 0.05 | 80 | 1011.1 |
| 20260505193021 | 10 | 97 | 1.6 | 4.8 | 0.00 | 0.99 | 0.05 | 80 | 1010.8 |
| 20260505191522 | 10 | 138 | 1.6 | 4.8 | 0.00 | 0.99 | 0.05 | 80 | 1010.8 |
| 20260505190021 | 10 | 173 | 0.0 | 6.4 | 0.00 | 0.99 | 0.05 | 80 | 1010.7 |
| 20260505184519 | 10 | 194 | 1.6 | 6.4 | 0.00 | 1.09 | 0.05 | 80 | 1010.6 |
| 20260505183022 | 10 | 189 | 3.2 | 11.3 | 0.03 | 1.09 | 0.05 | 79 | 1010.7 |
| 20260505181518 | 11 | 182 | 3.2 | 6.4 | 0.03 | 1.09 | 0.05 | 79 | 1010.7 |
| 20260505180038 | 11 | 188 | 3.2 | 11.3 | 0.03 | 1.09 | 0.05 | 78 | 1010.6 |
| 20260505174516 | 12 | 188 | 1.6 | 8.0 | 0.03 | 1.09 | 0.05 | 77 | 1010.3 |
| 20260505173016 | 12 | 171 | 3.2 | 8.0 | 0.00 | 1.07 | 0.03 | 75 | 1010.4 |
| 20260505171515 | 13 | 200 | 0.0 | 3.2 | 0.00 | 1.07 | 0.03 | 70 | 1010.3 |
| 20260505170016 | 13 | 132 | 4.8 | 9.7 | 0.00 | 1.07 | 0.03 | 70 | 1010.4 |
| 20260505164514 | 13 | 277 | 6.4 | 16.1 | 0.00 | 1.07 | 0.03 | 73 | 1010.3 |